HJ3GNC-15 Weather Reports


time (UTC)temp
C
wind
direction
speed
KPH
gust
KPH
rain 1hr
cm
rain 24hr
cm
rain mn
cm
humidity
%
barometer
mb
20260507135917 17 154 0.0 0.0 0.00 0.00 0.00 69 1016.0
20260507134315 17 154 0.0 0.0 0.00 0.00 0.00 69 1016.0
20260507132716 15 223 0.0 0.0 0.00 0.00 0.00 80 1016.0
20260507131110 15 223 0.0 0.0 0.00 0.00 0.00 79 1016.0
20260507125458 15 223 0.0 0.0 0.00 0.00 0.00 79 1016.0
20260507123912 15 223 0.0 0.0 0.00 0.00 0.00 79 1016.0
20260507115046 13 270 0.0 0.0 0.00 0.00 0.00 90 1016.0
20260507113503 13 270 0.0 0.0 0.00 0.00 0.00 90 1016.0
20260507111914 12 272 0.0 0.0 0.00 0.00 0.00 91 1016.0
20260507110325 12 272 0.0 0.0 0.00 0.00 0.00 93 1016.0
20260507104742 12 272 0.0 0.0 0.00 0.00 0.00 93 1016.0
20260507103201 12 272 0.0 0.0 0.00 0.00 0.00 93 1016.0
20260507101621 12 273 0.0 0.0 0.00 0.00 0.00 93 1016.0
20260507100041 12 273 0.0 0.0 0.00 0.00 0.00 93 1016.0
20260507094459 12 273 0.0 0.0 0.00 0.00 0.00 93 1016.0
20260507092916 12 271 0.0 0.0 0.00 0.00 0.00 93 1015.0
20260507091332 12 271 0.0 0.0 0.00 0.00 0.00 93 1015.0
20260507085747 12 271 0.0 0.0 0.00 0.00 0.00 93 1015.0
20260507084203 12 271 0.0 0.0 0.00 0.00 0.00 93 1015.0
20260507082620 13 274 0.0 0.0 0.00 0.00 0.00 93 1015.0
20260507081034 13 274 0.0 0.0 0.00 0.00 0.00 93 1015.0
20260507075450 13 274 0.0 0.0 0.00 0.00 0.00 93 1015.0
20260507073908 13 274 0.0 0.0 0.00 0.00 0.00 93 1015.0
20260507072321 13 270 0.0 0.0 0.00 0.00 0.00 93 1015.0
20260507070737 13 270 0.0 0.0 0.00 0.00 0.00 92 1015.0
20260507065148 13 270 0.0 0.0 0.00 0.00 0.00 91 1015.0
20260507063603 13 270 0.0 0.0 0.00 0.00 0.00 91 1015.0
20260507062020 13 269 0.0 0.0 0.00 0.00 0.00 90 1016.0
20260507060438 13 269 0.0 0.0 0.00 0.00 0.00 91 1016.0
20260507054855 13 266 0.0 0.0 0.00 0.00 0.00 91 1016.0
20260507053315 13 266 0.0 0.0 0.00 0.00 0.00 91 1016.0
20260507051732 14 267 0.0 0.0 0.00 0.00 0.00 90 1017.0
20260507050140 14 267 0.0 0.0 0.00 0.00 0.00 91 1017.0
20260507044554 14 267 0.0 0.0 0.00 0.00 0.00 92 1017.0
20260507043006 14 267 0.0 0.0 0.00 0.00 0.00 92 1017.0
20260507012046 15 268 0.0 0.0 0.00 0.00 0.00 90 1016.0
20260507010500 15 268 0.0 0.0 0.00 0.00 0.00 90 1016.0
20260507004911 15 268 0.0 0.0 0.00 0.00 0.00 92 1016.0
20260507003326 15 268 0.0 0.0 0.00 0.00 0.00 92 1016.0
20260506222656 18 176 0.0 0.0 0.00 0.00 0.00 82 1012.0
20260506221103 19 176 0.0 0.0 0.00 0.00 0.00 82 1012.0
20260506215518 19 176 0.0 0.0 0.00 0.00 0.00 83 1013.0
20260506213901 19 176 0.0 0.0 0.00 0.00 0.00 83 1013.0
20260506212233 20 161 0.0 0.0 0.00 0.00 0.00 74 1012.0
20260506210608 20 161 0.0 0.0 0.00 0.00 0.00 74 1012.0
20260506205020 20 161 0.0 0.0 0.00 0.00 0.00 74 1012.0
20260506203436 20 161 0.0 0.0 0.00 0.00 0.00 74 1012.0
20260506201847 20 163 0.0 0.0 0.00 0.00 0.00 68 1012.0
20260506200253 20 163 0.0 0.0 0.00 0.00 0.00 70 1012.0
20260506194705 20 163 0.0 0.0 0.00 0.00 0.00 69 1012.0
20260506193121 20 163 0.0 0.0 0.00 0.00 0.00 69 1012.0
20260506191535 19 180 0.0 0.0 0.00 0.00 0.00 69 1013.0
20260506185928 19 180 0.0 0.0 0.00 0.00 0.00 69 1013.0
20260506184339 19 180 0.0 0.0 0.00 0.00 0.00 69 1013.0
20260506182754 18 230 0.0 0.0 0.00 0.00 0.00 83 1015.0
20260506181210 17 230 0.0 0.0 0.00 0.00 0.00 85 1015.0
20260506175555 19 230 0.0 0.0 0.00 0.00 0.00 75 1013.0
20260506174008 19 193 0.0 0.0 0.00 0.00 0.00 75 1013.0
20260506142906 17 154 0.0 0.0 0.00 0.00 0.00 79 1016.0
20260506141314 16 154 0.0 0.0 0.00 0.00 0.00 80 1016.0